Powrót do katalogu

NOAA 16 DEB

AktywnySSO
NORAD 41223·DEBRIS·🇺🇸 United States

Wystrzelony Sep 21, 2000 z Vandenberg Space Force Base

Loading…

Następne Przeloty (najbliższe 24 godziny)

TLE

ŚwieżeSource: Space-Track

Epoka: Sep 13, 2026, 22:32 UTC

1 41223U 00055EC  26256.93944957  .00001254  00000-0  67153-3 0  9990
2 41223  98.6641 251.8707 0032441 358.4055   1.7010 14.14622553552556

Śledź NOAA 16 DEB w czasie rzeczywistym z AllMySat

Download on the App Store